map of TMP home
TMP - Airport
Location
City:  Tampere, Pirkanmaa (Birkaland), Finland
Name:Pirkkala
ICAO:EFTP
IATA:TMP

Details
Type:Airport (Aerodrome, Airfield)
Latitude:6124'55"N (61.415278)
Longitude:2335'16"E (23.587778)
Elevation:390 ft (119 m)
Variation:9.10E (WMM2015v2 magnetic declination)
0.20 annual change
Runways:1
Longest:8858 × 148 ft (2700 × 45 m), paved

Time
Time Zone:UTC+2 (DST+3)
Local Time:

Weather
METAR:EFTP 041420Z AUTO 25009KT 7000 -SHSN FEW010 BKN020 M09/M11 Q1014
TAF:EFTP 041136Z 0412/0512 26007KT 9999 FEW010 BKN015
TEMPO 0412/0415 3000 -SHSN BKN012
TEMPO 0415/0501 7000 -SHSN BKN010 PROB30 0418/0501 BKN005
BECMG 0501/0503 BKN006
BECMG 0503/0505 3000 -SN
TEMPO 0505/0512 1500 SN BKN004

Related Locations
Nearby:
Farthest:NZTB: 11101 mi / 17865 km
Terra Nova Bay [Mario Zucchelli Station], AQ

Find:

   beyond  
but within

Other Information
Maps:
NOTAMs:
Links:
Sources:

  
  • flag of Finland
  

Sectional Chart

Flight Planning
at skyvector.com

Satellite Image

Google Maps Satellite view

 

Copyright © 2004-2019 Karl L. Swartz. All rights reserved.
The Great Circle Mapper name and logo are trademarks of the Great Circle Mapper.
All other trademarks mentioned herein belong to their respective owners.
Please see credits for attibutions and further copyright information.

  Follow gcmap on Facebook Follow gcmap on Twitter GCmap on LinkedIn

hCard Microformat

Geo Microformat